"Pseudo-MPEC" for ST26G95

Created 2026 Jul 28 21:35:16 UT using Find_Orb

Click here for an explanation of pseudo-MPECs

 
 Astrometry: 
     ST26G95* C2026 07 24.24376318 19 24.968+34 06 08.31   ~7O6o 18.70GVNEOCPU68
     ST26G95  C2026 07 24.24710418 19 24.320+34 02 26.58   ~7O6o 18.70GVNEOCPU68
     ST26G95  C2026 07 24.25472418 19 22.758+33 53 54.03   ~7O6o 18.82GVNEOCPU74
     ST26G95  C2026 07 24.25689618 19 22.165+33 51 26.40   ~7O6o 18.82GVNEOCPU74
     ST26G95  C2026 07 24.30236018 19 12.603+32 58 40.86   ~7O7o 18.94GVNEOCPU74
     ST26G95  C2026 07 24.30563418 19 11.787+32 54 46.53   ~7O7o 18.94GVNEOCPU74
     ST26G95 1C2026 07 24.35778218 19 27.529+31 54 32.58   ~7OHK 19.70GVNEOCPT12
     ST26G95 1C2026 07 24.35799518 19 27.470+31 54 16.46   ~7OHK 19.51GVNEOCPT12
     ST26G95 1C2026 07 24.35818718 19 27.416+31 54 01.94   ~7OHK 19.79GVNEOCPT12
     ST26G95 1C2026 07 24.36228518 19 26.315+31 48 50.97   ~7OHK 19.65GVNEOCPT12
     ST26G95 1C2026 07 24.36249918 19 26.251+31 48 34.61   ~7OHK 19.76GVNEOCPT12
     ST26G95 1C2026 07 24.36271118 19 26.196+31 48 18.45   ~7OHK 19.95GVNEOCPT12
     ST26G95 1C2026 07 24.36426618 19 25.777+31 46 19.98   ~7OHK 19.85GVNEOCPT12
     ST26G95 1C2026 07 24.36447918 19 25.719+31 46 03.70   ~7OHK 20.13GVNEOCPT12
     ST26G95 1C2026 07 24.36469318 19 25.663+31 45 47.38   ~7OHK 19.70GVNEOCPT12
     ST26G95  C2026 07 24.41019718 18 54.049+30 40 44.34   ~7OEZ 18.80GVNEOCPU74
     ST26G95  C2026 07 24.41347118 18 53.668+30 36 15.72   ~7OEZ 18.80GVNEOCPU74
     ST26G95 KB2026 07 24.64322518 19 17.101+24 41 42.13   ~7OG5 18.7 GXNEOCPQ06
     ST26G95 KB2026 07 24.64745518 19 16.386+24 34 05.13   ~7OG5 19.0 GXNEOCPQ06
     ST26G95 KB2026 07 24.65168818 19 15.517+24 26 25.47   ~7OG5 18.3 GXNEOCPQ06
     ST26G95 1C2026 07 24.84862318 20 07.33 +17 42 43.4    ~7OL5 18.8 GVNEOCPK88
     ST26G95 1C2026 07 24.85436318 20 06.25 +17 29 28.2    ~7OL5 18.7 GVNEOCPK88
     ST26G95 KB2026 07 24.85921618 20 06.05 +17 17 50.4    ~7OLK 18.4 GVNEOCPG02
     ST26G95 KB2026 07 24.86318118 20 05.38 +17 08 33.2    ~7OLK 18.0 GVNEOCPG02
     ST26G95 0B2026 07 24.87142418 20 07.535+16 48 45.41   ~7OMZ 18.6 GWNEOCPG34
     ST26G95 0B2026 07 24.87197618 20 07.445+16 47 27.19   ~7OMZ 18.4 GWNEOCPG34
     ST26G95 KB2026 07 24.91240618 19 59.568+15 10 12.25   ~7OMK 18.5 GXNEOCP595
     ST26G95 KB2026 07 24.91503018 19 59.016+15 03 37.84   ~7OMK 19.1 GXNEOCP595
     ST26G95 KC2026 07 24.93803 18 19 56.06 +14 05 35.8    ~7ONZ       VNEOCP104
     ST26G95 KC2026 07 24.93900 18 19 55.88 +14 03 06.1    ~7ONZ 18.7 GVNEOCP104
     ST26G95 0C2026 07 24.94023818 20 06.475+13 58 12.90   ~7ON5 18.8 GWNEOCPJ95
     ST26G95 0C2026 07 24.94449118 20 05.724+13 47 11.62   ~7ON5 18.4 GWNEOCPJ95
     ST26G95 0C2026 07 24.94874018 20 04.942+13 36 07.42   ~7ON5 18.5 GWNEOCPJ95
     ST26G95 KB2026 07 25.49757818 21 39.203-18 36 09.67   ~7PCK 16.2 GXNEOCPQ06
     ST26G95 KB2026 07 25.49944718 21 38.627-18 44 11.34   ~7PCK 16.9 GXNEOCPQ06
     ST26G95 KB2026 07 25.50131718 21 38.150-18 52 14.36   ~7PCK 16.2 GXNEOCPQ06

Station data:
(104) San Marcello Pistoiese  (N44.064178 E10.803750)  Italy.  Observers P.
   Bacci, M. Maestripieri. Measurers P. Bacci, L. Tesi, G. Fagioli. 0.60-m
   reflector + CCD.
(595) Farra d'Isonzo  (N45.915731 E13.525780)  Italy.  Observers S. Aschi, E.
   Pettarin, G. Panterotto. Measurers S. Aschi, E. Pettarin. 0.40-m f/5.15
   reflector + CCD.
(G02) KYSUCE Observatory, Kysucke Nove Mesto  (N49.307313 E18.765390)
   Slovakia.  Observer M. Urbanik. 0.40-m f/4.4 reflector + CCD.
(G34) Oberfrauendorf  (N50.860002 E13.701500)  Germany.  Observer T. Felber.
   0.35-m f/6.3 Schmidt-Cassegrain + CCD.
(J95) Great Shefford  (N51.474969 W1.447003)  UK/England.  Observer P.
   Birtwhistle. 0.41-m f/6.3 Schmidt-Cassegrain + CCD.
(K88) GINOP-KHK, Piszkéstető  (N47.917453 E19.893670)  Hungary.  Observer K.
   Sárneczky. 0.60-m Schmidt + CCD.
(Q06) Tarui Observatory, Tarui  (N35.394791 E136.495470)  Japan.  Observer H.
   Watanabe. 0.35-m f/1.9 Schmidt-Cassegrain + CMO.
(T12) Mauna Kea-UH/Tholen NEO Follow-Up (2.24-m)  (N19.822991 W155.469434)
   US/Hawaii.  Observer R. Weryk. 2.24-m f/10.1 University of Hawaii
   reflector.
(U68) JPL SynTrack Robotic Telescope, Auberry  (N37.070387 W119.412990)
   US/California.  Observers N. Saini, C. Zhai, R. Trahan, M. Zhan, M. Shao.
   0.28-m f/2.2 Schmidt + CCD.
(U74) JPL SynTrack Robotic Telescope 2, Auberry  (N37.070341 W119.412800)
   US/California.  Observers N. Saini, C. Zhai, R. Trahan, M. Zhan, M. Shao.
   0.36-m f/2.2 Schmidt.

Orbital elements:  ST26G95
   Perihelion 2026 Aug 2.739344 +/- 0.00526 TT = 17:44:39.3 (JD 2461255.239344)
Epoch 2026 Jul 25.0 TT = JDT 2461246.5   Earth MOID: 0.0059   Ma: 0.0097
M 354.426770882 +/- 0.0059          (J2000 ecliptic)             AutoNEOCP
n   0.637717095 +/- 0.000298        Peri.  188.683693 +/- 0.0048
a   1.336751488 +/- 0.000416        Node   122.104881 +/- 0.00008
e   0.23735960 +/- 0.000235         Incl.   26.893329 +/- 0.010
P   1.546/564.503d         H 27.00  G  0.15   U  7.3
q 1.019460677 +/- 3.53e-6    Q 1.654042299 +/- 0.000829
From 36 observations 2026 July 24-25 (30.2 hr); mean residual 0".48
Residuals in arcseconds: 
260724 U68  1.3-  .49+    260724 T12  .04+  .02+    260724 G34  .10+  .13+    
260724 U68  .56-  1.4+    260724 T12  .03+  .01-    260724 G34  .21+  .41+    
260724 U74  .26+  .10+    260724 T12  .05+  .01+    260724 595  .21-  .12+    
260724 U74  1.3-  .87-    260724 U74  .02+  .57+    260724 595  .31-  .23-    
260724 U74  .88+  1.2-    260724 U74  .19-  1.0+    260724 104  .23-  .59-    
260724 U74  .76-  .38-    260724 Q06  .81-  .21-    260724 104  .16+  .04+    
260724 T12  .06+  .03-    260724 Q06  .60+  .42-    260724 J95  .02+  .14-    
260724 T12  .04+  .04-    260724 Q06  .34-  .44-    260724 J95  .17+  .03+    
260724 T12  .01+  .03-    260724 K88  .40-  .03+    260724 J95  .14-  .23+    
260724 T12  .07+  .04+    260724 K88  .13-  .33+    260725 Q06  .57+  .02-    
260724 T12  .01-  .03-    260724 G02  .65-  .25-    260725 Q06  .38-  .09+    
260724 T12  .02+  .05-    260724 G02  .32+  .94-    260725 Q06  .13+  .65-    

Ephemerides (geocentric):
Date (UTC) HH   RA             Dec           delta  r     elong  mag " sig PA
---- --------  ------------   ------------  ------ ------ -----  --- --------
2026 07 28 22  06 11 10.396   -77 47 24.74  .02917 1.0202  98.8 22.1 1.10   4
2026 07 28 23  06 11 17.711   -77 37 45.96  .02952 1.0202  98.6 22.2 1.10   4
2026 07 29 00  06 11 24.673   -77 28 20.61  .02986 1.0202  98.5 22.2 1.11   4
2026 07 29 01  06 11 31.305   -77 19 08.25  .03021 1.0201  98.4 22.2 1.11   3
2026 07 29 02  06 11 37.630   -77 10 08.43  .03056 1.0201  98.2 22.3 1.11   3
2026 07 29 03  06 11 43.670   -77 01 20.75  .03090 1.0201  98.1 22.3 1.12   3
2026 07 29 04  06 11 49.442   -76 52 44.80  .03125 1.0201  98.0 22.3 1.12   3
2026 07 29 05  06 11 54.963   -76 44 20.20  .03160 1.0201  97.9 22.3 1.12   3
2026 07 29 06  06 12 00.250   -76 36 06.59  .03194 1.0201  97.7 22.4 1.12   3
2026 07 29 07  06 12 05.317   -76 28 03.62  .03229 1.0201  97.6 22.4 1.13   3
2026 07 29 08  06 12 10.177   -76 20 10.96  .03264 1.0200  97.5 22.4 1.13   3
2026 07 29 09  06 12 14.842   -76 12 28.28  .03299 1.0200  97.4 22.5 1.13   3
2026 07 29 10  06 12 19.323   -76 04 55.28  .03334 1.0200  97.3 22.5 1.14   3
2026 07 29 11  06 12 23.631   -75 57 31.66  .03368 1.0200  97.2 22.5 1.14   3
2026 07 29 12  06 12 27.777   -75 50 17.14  .03403 1.0200  97.1 22.5 1.14   3
2026 07 29 13  06 12 31.767   -75 43 11.44  .03438 1.0200  96.9 22.6 1.14   3
2026 07 29 14  06 12 35.612   -75 36 14.30  .03473 1.0200  96.8 22.6 1.15   3
2026 07 29 15  06 12 39.318   -75 29 25.47  .03508 1.0200  96.7 22.6 1.15   3
2026 07 29 16  06 12 42.892   -75 22 44.70  .03543 1.0199  96.6 22.6 1.15   3
2026 07 29 17  06 12 46.343   -75 16 11.78  .03578 1.0199  96.5 22.7 1.15   3
2026 07 29 18  06 12 49.675   -75 09 46.45  .03612 1.0199  96.5 22.7 1.16   3
2026 07 29 19  06 12 52.894   -75 03 28.53  .03647 1.0199  96.4 22.7 1.16   3
2026 07 29 20  06 12 56.007   -74 57 17.79  .03682 1.0199  96.3 22.7 1.16   3
2026 07 29 21  06 12 59.018   -74 51 14.03  .03717 1.0199  96.2 22.8 1.16   3
2026 07 29 22  06 13 01.932   -74 45 17.06  .03752 1.0199  96.1 22.8 1.16   3
2026 07 29 23  06 13 04.753   -74 39 26.70  .03787 1.0199  96.0 22.8 1.17   3
2026 07 30 00  06 13 07.486   -74 33 42.77  .03822 1.0198  95.9 22.8 1.17   3
2026 07 30 01  06 13 10.135   -74 28 05.09  .03857 1.0198  95.8 22.8 1.17   3
2026 07 30 02  06 13 12.703   -74 22 33.50  .03892 1.0198  95.8 22.9 1.17   3
2026 07 30 03  06 13 15.194   -74 17 07.83  .03927 1.0198  95.7 22.9 1.17   3
2026 07 30 04  06 13 17.611   -74 11 47.93  .03962 1.0198  95.6 22.9 1.18   3
2026 07 30 05  06 13 19.958   -74 06 33.65  .03997 1.0198  95.5 22.9 1.18   3
2026 07 30 06  06 13 22.238   -74 01 24.84  .04032 1.0198  95.4 22.9 1.18   3
2026 07 30 07  06 13 24.452   -73 56 21.36  .04067 1.0198  95.4 23.0 1.18   3
2026 07 30 08  06 13 26.605   -73 51 23.09  .04102 1.0198  95.3 23.0 1.18   3
2026 07 30 09  06 13 28.697   -73 46 29.88  .04137 1.0197  95.2 23.0 1.19   3
2026 07 30 10  06 13 30.733   -73 41 41.62  .04172 1.0197  95.1 23.0 1.19   3
2026 07 30 11  06 13 32.713   -73 36 58.17  .04207 1.0197  95.1 23.1 1.19   3
2026 07 30 12  06 13 34.641   -73 32 19.42  .04242 1.0197  95.0 23.1 1.19   3
2026 07 30 13  06 13 36.518   -73 27 45.25  .04277 1.0197  94.9 23.1 1.19   3
2026 07 30 14  06 13 38.346   -73 23 15.56  .04312 1.0197  94.9 23.1 1.19   3
2026 07 30 15  06 13 40.127   -73 18 50.24  .04347 1.0197  94.8 23.1 1.20   3
2026 07 30 16  06 13 41.862   -73 14 29.18  .04383 1.0197  94.7 23.1 1.20   3
2026 07 30 17  06 13 43.554   -73 10 12.27  .04418 1.0197  94.7 23.2 1.20   3
2026 07 30 18  06 13 45.204   -73 05 59.44  .04453 1.0197  94.6 23.2 1.20   3
2026 07 30 19  06 13 46.813   -73 01 50.57  .04488 1.0197  94.6 23.2 1.20   3
2026 07 30 20  06 13 48.383   -72 57 45.58  .04523 1.0196  94.5 23.2 1.20   3
2026 07 30 21  06 13 49.915   -72 53 44.37  .04558 1.0196  94.4 23.2 1.21   3